星链-32295 (STARLINK-32295)

导读

STARLINK-32295是美国太空探索技术公司(SpaceX)星链卫星互联网项目的卫星,于2024年11月30日发射入轨,属于星链星座低轨卫星,旨在为全球提供高速低延迟卫星互联网服务,扩展全球网络覆盖范围,助力偏远地区网络接入与全球互联网络布局。

基本信息
目录编号:
62147
目录名称:
STARLINK-32295
国际标识:
2024-224J
轨道中心:
EARTH
卫星名称:
星链-32295
卫星全名:
星链-32295 (STARLINK-32295)
卫星状态:
在轨 (已飞行643 天)
发射日期:
2024-11-30 UTC
国别 :
美国 (US)
星等 :
--
轨道信息
数据来源 国际轨道数据 AOE轨道数据
星历时间 2026-09-04T13:41:39+0800
8小时前
查看轨道信息
2026-09-04T00:00:00+0800
22小时前
查看轨道信息
半长轴 6861.17km 6861.219km
偏心率 0.0001027 0.0001271
轨道倾角 42.997° 42.999°
近地点辐角 266.880° 274.017°
升交点赤经 230.010° 233.236°
平近点角 93.193° 184.511°
近地点 482.328km 482.209km
远地点 483.738km 483.955km
周期 94.266分钟 94.267分钟
每日圈数 15.275856 15.275693
详细信息
固有亮度:
5
最大亮度:
2.5
卫星平台:
Starlink V1.0
覆盖范围:
全球
运营商:
太空探索技术公司
运营商所在国:
美国
制造商(研发单位):
太空探索技术公司
制造商所在国:
美国
使用方式:
暂无
卫星简介
Starlink 计划是 SpaceX 推出的全球卫星互联网项目,通过发射低轨道卫星,为全球尤其是偏远地区提供高速、低延迟的互联网服务。自 2019 年起,Starlink 已部署数千颗卫星,旨在缩小全球数字鸿沟,推动互联网普及。该项目还为军事、航空等行业提供通信支持,带来广泛经济效益。
2D轨道图
3D轨道图
轨道高度分析图
轨道倾角分析图
轨道综合分析图
查看轨道综合分析图
交会数据列表
事件ID 空间交会对象 最接近时刻(TCA) 交会距离 交会风险概率(CRP) 交会风险指数(CRI) 操作
CDM_260829-102306-214706-299721
2026-08-29T
10:23:35+0000
1.031 km
极远距离
5.1484E-6 低风险 0.49
CDM_260905-144705-306606-214721
2026-09-05T
14:47:07+0000
2.011 km
极远距离
2.743001E-6 低风险 0.44
CDM_260905-153405-306606-214721
2026-09-05T
15:34:14+0000
2.121 km
极远距离
2.406257E-6 低风险 0.43
CDM_260829-080206-214706-299721
2026-08-29T
08:02:22+0000
1.646 km
极远距离
1.192339E-6 低风险 0.37
CDM_260829-093606-214706-299721
2026-08-29T
09:36:31+0000
2.271 km
极远距离
5.812695E-7 极低风险 0.3
CDM_260829-084906-214706-299721
2026-08-29T
08:49:26+0000
2.273 km
极远距离
5.803033E-7 极低风险 0.3